Location: Curicchi
(45.0167°N, 12.0500°E)
Time: 20:04:37
(UTC+00:00)

Iridium 16 - Visible Passes

Search period start: 16 January 2022 00:00
Search period end: 26 January 2022 00:00
Orbit: 766 x 770 km, 86.4° (Epoch: 15 January)

Date Brightness Start Highest point End Pass type
(mag) Time Alt. Az. Time Alt. Az. Time Alt. Az.
16 Jan 7.8 17:16:19 10° SW 17:20:31 25° WNW 17:24:46 10° NNW visible
17 Jan 6.7 16:39:06 10° SSW 16:44:02 45° W 16:49:01 10° N visible
18 Jan 8.5 17:47:32 10° W 17:49:04 11° WNW 17:50:36 10° NW visible
19 Jan 8.1 17:08:29 10° WSW 17:12:21 21° WNW 17:16:15 10° NNW visible
20 Jan 7.1 16:31:02 10° SSW 16:35:49 38° W 16:40:39 10° NNW visible
22 Jan 8.2 17:00:45 10° WSW 17:04:11 18° WNW 17:07:40 10° NNW visible
25 Jan 8.2 16:53:08 10° WSW 16:56:03 15° WNW 16:58:59 10° NW visible
